Showing default

ORBCOMM FM 19, 25415

Orbit data source: Space-Track

ORBCOMM FM 19, 25415 is a payload satellite owned by Orbcomm (US) in LEO that was launched on Sun, 02 Aug 1998 UTC via a PEGASUS XL/HAPS launch vehicle from the Pegasus Launch, Eastern Range Air Space (ERAS). Payload-class satellites include a variety of spacecraft equipped with specific instruments for various scientific and technological missions. These include communications satellites like Starlink; space stations such as the ISS; scientific satellites like the Hubble; Earth observation satellites from companies like Planet Labs, Umbra, and HawkEye 360; GPS; miniature CubeSats for education and research; and military/defense satellites.

Loading next visibility...
Identifier
25415, 1998-046C
Orbit
LEO
Country
Flag of USUS / ORB
Related business
Manufacturer
OSC-Germantown
Mission
Operational Commercial Communications
Bus & Motor
MICROSTAR, Unknown motor
Mass
42 kg wet, 42 kg dry
Launch date (UTC)
1998-08-02 (28 years ago)
Launch vehicle
PEGASUS XL/HAPS
Launch site
Pegasus Launch, Eastern Range Air Space (ERAS)
Object type
Payload
Rocket body
Debris
Shape & HBR
Cyl + 2 Pan, 4.2 m
Radar Cross Section
1.484 m², Medium (>0.1 m² and < 1m²)

Expand to show TLE details & history
Last TLE update: 2 days ago

TLE from 2 days ago
0 ORBCOMM FM 19
1 25415U 98046C   26171.47310161  .00000477  00000-0  19693-3 0  9993
2 25415  44.9926 227.9426 0004546 294.8894  79.0113 14.39500175457257
Epoch: 2026-06-20T11:21Z
TLE epoch observation values (Epoch: 2026-06-20T11:21:15.979Z)
Latitude
9.81292°
Longitude
158.84777°
Altitude
758.792 km
Speed
7.478 km/s
True Right ascension
15h 51m 24s
True Declination
9° 45' 19"
Sunlit
Object was in full shadow at epoch
Visualization orbit readout
Latitude
Unknown
Longitude
Unknown
Altitude
Unknown
Speed
Unknown
Apparent Right ascension
Unknown
Apparent Declination
Unknown
Sunlit
N/A
Visualization observer readout
Local Sidereal Time
23:20:25
Azimuth
Unknown
Elevation
Unknown
Doppler factor
Unknown
Orbital elements
Apogee altitude
764.944 km
Perigee altitude
758.453 km
Semi-major axis
7,139.836 km
Eccentricity
0.00045
Inclination
44.9926°
RAAN
227.9426°
Arg. of periapsis
294.8894°
True anomaly
79.06244°
Mean anomaly
79.0113°
Eccentric anomaly
79.03687°
Mean motion
3.59758 °/min
Orbital period
100.07 mins
BSTAR
0.00019693
Loading maneuver chart data...
Computing Atmospheric mass density...

Documentation

Showing up to 5 results
|